Content
SEND FEEDBACK

Daily
Averages
Monthly
Summary
United States of America

MANGILAO, GUAM


Home > North America > United States > Guam
Elevation: 60 feet     Latitude: 13 27N     Longitude: 144 49E

WEATHER
 
SELECT A DAY
Number of Records: 342,429;   Date Range: 1/1/95 - 9/3/14
 
SHARE

PRINT THIS DATA

[ ← Previous Day ]
WEATHER ALMANAC - AUGUST 25, 2013
[ Next Day → ]
[ °C ]   °F
Weather ElementAverageHighLow
Temperature79.6 °F86 °F (11:58 am)75.2 °F (1:26 am)
Dewpoint75.1 °F77 °F (12:04 am)73.4 °F (2:11 am)
Humidity86.7 %100 % (12:36 am)70 % (11:58 am)
Barometer29.87 in29.93 in (10:28 pm)29.82 in (2:28 pm)
Wind Speed7.8 mph21.9 mph (12:14 am)
Wind Gust29.9 mph (12:09 am)
Weather ElementAverage
Visibility9.4 mi
Wind DirectionSSE (172.5 °)

Weather ElementTotal
Precipitation0.61 in
Cooling Degree Days15.6 (Base 65)
Growing Degree Days30.6 (Base 50)
Averaged from 72 records on August 25, 2013
WEATHER CONDITIONS BREAKOUT
WIND DIRECTION BREAKOUT
WEATHER BY HOUR - AUGUST 25, 2013
[ °C ]   °F
Local TimeTemperatureDewpointHumidityBarometerVisibilityWind DirectionWind SpeedGust SpeedPrecipitationEventsConditions
12:04 AM78.8 °F77.0 °F94 %29.89 in9.0 miSE (140°)20.7 mph28.8 mphRainLight Rain
12:09 AM78.8 °F75.2 °F89 %29.89 in1.0 miSE (140°)20.7 mph29.9 mphRainHeavy Rain
12:14 AM77.0 °F75.2 °F94 %29.89 in0.5 miSSE (150°)21.9 mph29.9 mphFog-RainHeavy Rain
12:19 AM77.0 °F75.2 °F94 %29.89 in0.8 miSSE (160°)15.0 mph28.8 mphRainRain
12:23 AM77.0 °F75.2 °F94 %29.88 in1.2 miSSE (150°)10.4 mph27.6 mphRain-ThunderstormThunderstorms and Rain
12:28 AM77.0 °F75.2 °F94 %29.88 in5.0 miSSE (150°)11.5 mphRain-ThunderstormLight Thunderstorms and Rain
12:31 AM77.0 °F75.2 °F94 %29.88 in9.0 miSSE (160°)17.3 mph21.9 mphThunderstormThunderstorm
12:36 AM77.0 °F77.0 °F100 %29.89 in10.0 miSouth (170°)16.1 mph21.9 mphThunderstormThunderstorm
12:41 AM77.0 °F75.2 °F94 %29.89 in10.0 miSouth (180°)15.0 mphOvercast
12:46 AM77.0 °F75.2 °F94 %29.89 in10.0 miSouth (190°)17.3 mphOvercast
12:51 AM77.0 °F75.2 °F94 %29.89 in10.0 miSSW (200°)15.0 mphOvercast
12:52 AM77.0 °F75.2 °F94 %29.88 in10.0 miSSW (210°)13.8 mphRainLight Rain
12:54 AM77.0 °F75.2 °F94 %29.89 in10.0 miSSW (210°)11.5 mphOvercast
12:55 AM77.0 °F75.2 °F94 %29.88 in10.0 miSSW (210°)12.7 mphLight Drizzle
12:58 AM77.0 °F75.2 °F94 %29.88 in10.0 miSSW (210°)15.0 mph0.58 inRainLight Rain
1:13 AM77.0 °F75.2 °F94 %29.88 in10.0 miSSW (200°)15.0 mphRainLight Rain
1:19 AM77.0 °F75.2 °F94 %29.88 in10.0 miSSW (200°)13.8 mphMostly Cloudy
1:21 AM77.0 °F75.2 °F94 %29.88 in10.0 miSSW (200°)11.5 mphRainLight Rain
1:26 AM75.2 °F75.2 °F100 %29.88 in10.0 miSSW (200°)11.5 mphRainLight Rain
1:31 AM75.2 °F75.2 °F100 %29.87 in10.0 miSSW (200°)11.5 mphRainLight Rain
1:36 AM75.2 °F75.2 °F100 %29.87 in10.0 miSSW (210°)10.4 mphRainLight Rain
1:58 AM75.6 °F74.3 °F96 %29.86 in10.0 miSW (220°)8.1 mph0.01 inLight Drizzle
2:11 AM75.2 °F73.4 °F94 %29.86 in10.0 miSSW (210°)8.1 mphClear
2:20 AM75.2 °F73.4 °F94 %29.87 in10.0 miSSW (210°)8.1 mphLight Drizzle
2:58 AM75.6 °F74.1 °F95 %29.88 in10.0 miSW (230°)5.8 mph0.01 inRainLight Rain
3:58 AM75.4 °F74.1 °F96 %29.86 in10.0 miSW (230°)5.8 mph0.01 inLight Drizzle
4:08 AM75.2 °F75.2 °F100 %29.86 in10.0 miSW (220°)5.8 mphClear
4:58 AM75.6 °F74.3 °F96 %29.87 in10.0 miWSW (240°)6.9 mph0.00 inClear
5:58 AM75.6 °F73.6 °F94 %29.88 in10.0 miWSW (250°)5.8 mphPartly Cloudy
6:58 AM76.1 °F73.9 °F93 %29.90 in10.0 miSSW (200°)3.5 mphPartly Cloudy
7:58 AM77.9 °F74.3 °F89 %29.92 in10.0 miSW (220°)3.5 mphClear
8:58 AM81.1 °F75.9 °F84 %29.91 in10.0 miSW (220°)10.4 mphScattered Clouds
9:58 AM83.8 °F75.4 °F76 %29.91 in10.0 miSW (220°)8.1 mphPartly Cloudy
10:58 AM84.7 °F75.7 °F74 %29.90 in10.0 miSouth (170°)10.4 mphPartly Cloudy
11:58 AM86.0 °F75.0 °F70 %29.88 in10.0 miSouth (180°)9.2 mphScattered Clouds
12:13 PM84.2 °F75.2 °F74 %29.87 in10.0 miSouth (170°)9.2 mphMostly Cloudy
12:58 PM83.1 °F75.7 °F78 %29.85 in10.0 miSSE (160°)6.9 mphMostly Cloudy
1:13 PM84.2 °F75.2 °F74 %29.85 in10.0 miNNE (30°)6.9 mphMostly Cloudy
1:58 PM84.2 °F75.2 °F74 %29.84 in10.0 miVariable6.9 mphMostly Cloudy
2:28 PM84.2 °F75.2 °F74 %29.82 in10.0 miNE (40°)6.9 mphMostly Cloudy
2:38 PM84.2 °F75.2 °F74 %29.82 in10.0 miSouth (170°)9.2 mphMostly Cloudy
2:58 PM83.7 °F75.2 °F76 %29.82 in10.0 miSouth (170°)8.1 mphScattered Clouds
3:13 PM84.2 °F75.2 °F74 %29.82 in10.0 miSouth (180°)6.9 mphMostly Cloudy
3:18 PM84.2 °F75.2 °F74 %29.82 in10.0 miSouth (170°)5.8 mphScattered Clouds
3:23 PM84.2 °F75.2 °F74 %29.82 in10.0 miSouth (180°)8.1 mphMostly Cloudy
3:58 PM84.4 °F75.2 °F74 %29.82 in10.0 miSouth (190°)6.9 mphMostly Cloudy
4:23 PM84.2 °F75.2 °F74 %29.82 in10.0 miVariable4.6 mphMostly Cloudy
4:33 PM84.2 °F75.2 °F74 %29.82 in10.0 miSSE (160°)3.5 mphOvercast
4:38 PM82.4 °F75.2 °F79 %29.82 in10.0 miSSW (210°)3.5 mphMostly Cloudy
4:48 PM82.4 °F75.2 °F79 %29.82 in10.0 miEast (100°)1.2 mphOvercast
4:58 PM82.9 °F74.8 °F76 %29.83 in10.0 miEast (100°)2.3 mphOvercast
5:53 PM82.4 °F75.2 °F79 %29.84 in10.0 miVariable1.2 mphScattered Clouds
5:58 PM82.2 °F74.8 °F78 %29.84 in10.0 miEast (100°)2.3 mphScattered Clouds
6:03 PM82.4 °F75.2 °F79 %29.84 in10.0 miENE (60°)3.5 mphMostly Cloudy
6:18 PM82.4 °F75.2 °F79 %29.84 in10.0 miEast (80°)3.5 mphScattered Clouds
6:58 PM81.3 °F74.8 °F81 %29.86 in10.0 miESE (110°)2.3 mphScattered Clouds
7:21 PM80.6 °F75.2 °F84 %29.87 in10.0 miEast (80°)2.3 mphLight Drizzle
7:31 PM80.6 °F75.2 °F84 %29.87 in10.0 miVariable1.2 mphMostly Cloudy
7:36 PM80.6 °F75.2 °F84 %29.88 in10.0 miEast (80°)2.3 mphScattered Clouds
7:41 PM80.6 °F75.2 °F84 %29.88 in10.0 miCalmMostly Cloudy
7:46 PM80.6 °F77.0 °F89 %29.88 in10.0 miCalmMostly Cloudy
7:56 PM80.6 °F75.2 °F84 %29.89 in10.0 miNW (320°)4.6 mphOvercast
7:58 PM80.2 °F75.9 °F87 %29.89 in10.0 miNNW (330°)4.6 mph0.00 inOvercast
8:13 PM78.8 °F75.2 °F89 %29.89 in10.0 miWNW (300°)4.6 mphOvercast
8:28 PM78.8 °F75.2 °F89 %29.90 in9.0 miWest (270°)3.5 mphScattered Clouds
8:58 PM79.7 °F75.4 °F87 %29.91 in10.0 miWNW (300°)3.5 mphMostly Cloudy
9:03 PM78.8 °F75.2 °F89 %29.91 in10.0 miNW (310°)2.3 mphMostly Cloudy
9:33 PM78.8 °F75.2 °F89 %29.92 in10.0 miWNW (290°)4.6 mphScattered Clouds
9:58 PM78.6 °F75.2 °F89 %29.92 in10.0 miWNW (290°)3.5 mphClear
10:28 PM77.0 °F75.2 °F94 %29.93 in10.0 miWNW (300°)2.3 mphMostly Cloudy
10:58 PM78.8 °F75.2 °F89 %29.93 in10.0 miVariable3.5 mphOvercast
11:58 PM78.1 °F74.8 °F90 %29.91 in10.0 miNW (310°)3.5 mphPartly Cloudy
Hourly data recorded from PGUA, located miles away from Mangilao, Guam







STORIES FROM OUR PARTNERS